User: anonymous   Login
Location: Unspecified
(0.0000°N, 0.0000°E)
Time: 10:02:39
(UTC+00:00)
Language:

CANX 3B (BRITE-ASRA) - Orbit

View from above orbital plane
View from above orbital plane
View from above satellite
View from above satellite

Ground track
Ground track

The orbit data is extracted from the following two-line orbital elements,

1 39091U 13009F   15029.51966036  .00000213  00000-0  90836-4 0  5800
2 39091 098.6092 228.5560 0010444 010.9058 349.2352 14.34818049100788
Epoch (UTC): 29 January 2015 12:28:18
Eccentricity: 0.0010444
inclination: 98.6092°
perigee height: 768 km
apogee height: 783 km
right ascension of ascending node: 228.5560°
argument of perigee: 10.9058°
revolutions per day: 14.34818049
mean anomaly at epoch: 349.2352°
orbit number at epoch: 10078

The dashed part of the orbit path shows where the satellite is in the earth's shadow,  

DLR